Weather Roundup
Issued by NWS Chicago, IL

Home | Current Version | Previous Version | Text Only | Print | Product List | Glossary Off
Versions: 1 2 3 4 5 6 7 8 9 10 11 12 13 14 15 16 17 18 19 20 21 22 23 24 25 26 27 28 29 30 31 32 33 34 35 36 37 38 39 40 41 42 43 44 45 46 47 48 49 50

000
NZUS59 KLOT 251906
HRRLOT

CHICAGO AREA WEATHER ROUNDUP
NATIONAL WEATHER SERVICE CHICAGO/ROMEOVILLE IL
200 PM CDT SAT OCT 25 2014

NOTE: "FAIR" INDICATES FEW OR NO CLOUDS BELOW 12,000 FEET WITH NO
SIGNIFICANT WEATHER AND/OR OBSTRUCTIONS TO VISIBILITY.

* THESE STATIONS ARE NOT UNDER NWS QUALITY CONTROL. THEY ALSO MAY NOT
  REPORT WEATHER SUCH AS PRECIPITATION OR FOG.

ILZ005-006-012>014-019>023-252000-
NORTHEAST ILLINOIS

CITY           SKY/WX    TMP DP  RH WIND       PRES   REMARKS
OHARE          MOSUNNY   71  34  25 W15G26    29.92F
MIDWAY         MOSUNNY   73  36  25 W14G22    29.92F
AURORA         SUNNY     73  33  23 NW17G25   29.95F
LANSING*       SUNNY     72  40  31 W12       29.93F
JOLIET*        SUNNY     72  40  31 NW6       29.95F
WAUKEGAN       SUNNY     69  34  27 W13G20    29.89F
DUPAGE AIRPORT SUNNY     72  35  25 W13       29.93F
WHEELING       SUNNY     73  35  25 W14       29.93F
KANKAKEE*      SUNNY     72  48  42 W12G23    29.96S
MORRIS*        SUNNY     74  41  29 W14G20    29.95F
LEWIS AIRPORT* SUNNY     73  33  23 NW16      29.94F
NORTHERLY IS     N/A     70  32  24 W16         N/A
$$

WIZ051-052-058>065-066-070>072-252000-
SOUTHEAST WISCONSIN

CITY           SKY/WX    TMP DP  RH WIND       PRES   REMARKS
MILWAUKEE      MOSUNNY   68  27  21 W18G29    29.88F
KENOSHA*       SUNNY     70  36  28 W18G24    29.90F
RACINE*        SUNNY     69  32  25 NW14G20   29.91F
BURLINGTON     SUNNY     67  31  26 W23G30    29.91F
WAUKESHA       SUNNY     64  30  27 W21G30    29.91F
WEST BEND      SUNNY     64  27  24 W22G35    29.87F
$$

INZ001>003-010>013-019-020-252000-
NORTHWEST INDIANA

CITY           SKY/WX    TMP DP  RH WIND       PRES   REMARKS
GARY*          MOSUNNY   73  34  23 NW14      29.92F
MICHIGAN CITY* NOT AVBL
RENSSELAER*    NOT AVBL
VALPARAISO     SUNNY     71  44  37 W14       29.92F
$$

LMZ740>746-252000-
SOUTHERN LAKE MICHIGAN

STATION/POSITION TIME  SKY/WX   TEMP WIND        PRES    VSBY
                                AIR  DIR/SP/G
                 (UTC)          (F)  (DEG/KT/KT) (MB)    (MI)
HARRISON CRIB    1800            67  300/ 13/ 15   N/A
BURNHAM HARBOR   1900            71  290/  9/ 18   N/A
CALUMET HARBOR   1900            71  260/  7/ 13 1012.1R
BURNS HARBOR     NOT AVBL
MICHIGAN CITY    1800            58  240/ 12/ 12   N/A
$$

ABBREVIATIONS USED IN REMARKS
   TC - TEMPERATURE IN CELSIUS
  WCI - WIND CHILL INDEX
   HX - HEAT INDEX
  VSB - VISIBILITY
$$



USA.gov is the U.S. government's official web portal to all federal, state and local government web resources and services.